Regional Weather Roundup
Issued by NWS State College, PA

Home | Current Version | Previous Version | Text Only | Print | Product List | Glossary On
Versions: 1 2 3 4 5 6 7 8 9 10 11 12 13 14 15 16 17 18 19 20 21 22 23 24 25 26 27 28 29 30 31 32 33 34 35 36 37 38 39 40 41 42 43 44 45 46 47 48 49 50
031
ASUS41 KCTP 230810
RWRCTP

REGIONAL WEATHER ROUNDUP
NATIONAL WEATHER SERVICE STATE COLLEGE PA
300 AM EST THU NOV 23 2017

Note: "fair" indicates few or no clouds below 12,000 feet with no
significant weather and/or obstructions to visibility.

* = STATION THAT DOES NOT REPORT PRECIPITATION /E.G. RAIN...SNOW...ETC/
    THUNDER OR FOG.

PAZ002>004-007>009-013>016-020>023-029>032-230900-
WESTERN PENNSYLVANIA

CITY           SKY/WX    TMP DP  RH WIND       PRES   REMARKS
ERIE           CLOUDY    32  23  69 SW5       30.17S
MEADVILLE      CLOUDY    28  22  78 SW5       30.15S
FRANKLIN*      CLOUDY    27  22  81 W5        30.15S
NEW CASTLE     CLOUDY    27  22  81 CALM      30.19S
BEAVER COUNTY  NOT AVBL
BUTLER*        CLOUDY    28  22  78 CALM      30.18S
PITTSBURGH INT CLOUDY    25  21  85 W3        30.18R
PITTSBURGH     CLOUDY    27  17  66 W5        30.17R
INDIANA*       CLOUDY    30  21  69 NW6       30.19S
LATROBE        CLOUDY    27  19  74 S3        30.18S
WASHINGTON CO* CLOUDY    26  21  81 N3        30.21R
$$

PAZ004>006-010>012-017>019-024>028-033>037-041-042-045-046-049>053-230900-
CENTRAL PENNSYLVANIA

CITY           SKY/WX    TMP DP  RH WIND       PRES   REMARKS
BRADFORD       CLOUDY    25  20  81 CALM      30.10S
DUBOIS         CLOUDY    28  18  66 NW7       30.11S
CLEARFIELD     CLOUDY    30  19  63 NW5       30.13S
JOHNSTOWN      CLOUDY    26  18  71 W10       30.08F
ALTOONA        CLOUDY    31  20  63 NW9       30.12F
STATE COLLEGE  CLOUDY    31  19  60 NW6       30.13F
WILLIAMSPORT   CLOUDY    32  19  58 NW5       30.15S
SELINSGROVE    CLOUDY    26  21  81 N5        30.16F
FT INDIANTOWN  CLEAR     30  18  59 CALM      30.13F
CAPITAL CITY   CLEAR     32  18  56 W8        30.15F
HARRISBURG     PTCLDY    32  20  61 N9        30.14F
YORK           CLEAR     28  21  75 NW5       30.13F
$$

PAZ038>040-043-044-047-048-054-055-060>062-067>071-230900-
EASTERN PENNSYLVANIA

CITY           SKY/WX    TMP DP  RH WIND       PRES   REMARKS
SCRANTON       CLOUDY    27  16  63 N6        30.12S
MOUNT POCONO   CLEAR     22  16  78 NW10      30.02S WCI  11
ALLENTOWN      CLEAR     31  16  54 NW9       30.13F
QUAKERTOWN*    SUNNY     28  19  69 CALM      30.11S
READING        CLEAR     29  20  69 NW7       30.13F
LANCASTER      CLOUDY    30  21  69 NW5       30.13F
COATESVILLE    MOSUNNY   32  19  59 N8G15     30.12R
POTTSTOWN      CLEAR     30  17  58 NW8       30.13F
BLUE BELL      CLEAR     30  21  69 CALM      30.14R
DOYLESTOWN     CLEAR     30  18  60 N8        30.09F
WILLOW GROVE   NOT AVBL
NORTH PHILA    CLEAR     33  20  58 NW8       30.14R
PHILADELPHIA   CLEAR     35  20  54 NW9       30.15R
$$




USA.gov is the U.S. government's official web portal to all federal, state and local government web resources and services.